Dewpoint
67 67 67 68 68 69 68 68 68 69 69 69 69 68 68 68 68 68 68 68 68 68 68 68 68 68 68 68 68 68 68 68 68 68 68 68 67 67 66 66 66 66 66 66 66 66 66 66 66 66 66 65 65 64 64 63 62 62 62 61 61 61 60 60 60 60 60 60 59 59 59 58 58 58 57 57 56 56 56 56 56 56 56 55 55 55 54 54 54 53 53 52 52 52 52 52 53 50 51 51 52 51 52
66 66 67 67 68 68 68 68 68 68 68 68 69 69 69 68 68 68 68 68 68 68 68 68 68 68 68 68 68 68 68 68 68 68 68 67 67 66 66 66 66 66 66 66 66 66 66 66 66 66 65 65 64 64 64 63 63 62 62 61 61 61 60 60 60 60 60 60 59 59 59 58 58 58 58 57 56 55 55 55 55 55 55 55 55 55 55 55 54 53 53 52 52 51 51 51 52 49 49 51 52 52 53
66 66 66 67 67 68 68 68 67 67 67 67 68 69 69 69 68 68 68 68 68 68 68 68 67 67 67 67 67 67 67 67 67 67 67 67 67 66 66 66 65 66 66 66 65 65 66 66 66 65 65 64 64 63 63 63 63 62 62 62 61 61 61 60 60 60 60 60 59 59 59 58 58 58 58 57 56 55 55 55 55 55 55 55 55 55 55 55 54 54 53 52 51 51 51 50 49 47 48 51 52 52 52
65 65 66 66 66 67 67 67 67 67 67 67 66 68 69 69 68 68 68 67 68 68 67 67 67 67 67 67 67 67 67 67 67 67 67 67 66 66 65 65 65 66 66 66 66 66 66 66 65 65 65 64 64 63 63 63 63 63 62 62 61 61 61 60 60 60 60 60 59 59 59 58 58 58 58 57 56 56 55 55 55 55 55 55 55 55 55 55 55 54 53 52 51 50 48 46 46 46 48 49 51 51 52
65 65 65 65 66 66 66 67 67 67 66 66 66 67 68 69 68 68 68 67 67 67 67 67 67 67 67 67 67 67 67 67 67 66 66 66 66 65 65 65 65 65 65 65 65 65 65 65 65 65 64 64 63 63 63 63 63 63 62 62 62 61 61 60 60 60 60 60 59 59 59 58 58 58 58 57 57 56 55 55 55 55 55 55 55 55 55 55 55 54 54 53 51 49 46 44 44 45 46 48 49 50 51
65 65 65 65 65 65 66 66 67 66 66 66 65 66 67 68 68 68 68 68 68 67 67 67 67 67 67 67 67 67 67 67 67 67 67 66 66 65 65 65 65 65 64 64 64 64 64 65 65 65 64 64 63 63 63 63 63 63 63 62 62 61 61 60 60 60 60 59 59 59 59 58 58 58 58 57 56 56 56 56 55 55 55 55 55 55 55 55 54 54 54 52 50 47 44 43 43 44 45 47 48 48 49
64 64 65 64 64 65 65 66 66 66 66 65 65 66 66 67 69 68 68 68 68 68 68 67 67 67 67 67 67 67 67 67 67 67 67 67 66 66 66 65 65 64 64 63 63 63 64 64 64 64 64 64 63 63 63 63 63 63 63 62 62 61 61 60 60 60 60 59 59 59 59 59 58 58 58 57 56 56 56 55 54 55 55 55 55 55 55 55 55 54 54 51 46 44 43 43 42 42 44 46 46 46 47
64 64 64 64 64 64 65 65 65 65 65 65 65 65 65 66 69 68 68 68 68 68 68 68 68 67 67 67 67 67 67 67 67 67 67 67 67 67 66 65 65 64 64 63 63 63 63 64 63 64 64 64 64 63 63 63 63 63 63 63 62 62 61 60 60 60 59 59 59 59 59 59 58 58 58 57 56 56 56 55 52 52 53 54 55 55 56 56 55 54 53 49 43 42 42 42 42 42 43 45 45 45 46
64 64 64 64 64 64 65 65 65 65 65 65 64 62 64 67 68 68 67 67 67 67 68 68 68 68 68 67 67 67 67 67 67 66 67 67 67 67 66 65 64 64 64 64 63 63 63 63 63 64 64 64 64 63 63 63 63 63 63 63 62 62 61 61 60 60 59 59 58 58 58 58 58 58 57 57 57 56 55 53 51 51 51 52 53 54 55 56 55 53 50 46 42 41 41 42 41 40 41 43 44 44 46
65 64 64 64 65 65 65 65 65 65 65 64 61 63 66 68 67 67 67 67 67 67 67 68 68 68 68 68 67 67 67 67 67 66 66 66 66 66 66 65 64 64 64 64 64 64 64 64 64 64 64 64 63 63 63 63 63 63 63 63 62 62 61 61 60 60 60 59 58 58 58 58 58 58 57 57 57 55 54 52 51 51 51 51 51 52 53 54 54 50 46 42 40 39 39 39 39 37 39 41 41 42 45
64 64 64 64 64 65 65 65 65 65 64 63 60 64 66 66 66 66 66 66 67 67 67 67 67 68 68 67 67 67 66 66 66 66 66 66 66 66 66 65 65 65 65 64 64 64 64 64 64 63 63 63 63 63 63 63 63 63 63 62 62 62 61 60 60 60 59 59 58 58 57 57 58 57 56 55 55 54 53 51 50 50 51 51 50 50 50 51 51 47 43 39 38 38 38 37 37 36 37 38 38 39 43
64 64 64 64 64 64 65 65 65 66 64 63 61 63 64 65 65 65 66 66 66 66 66 67 66 67 67 67 67 67 66 66 66 66 66 66 66 66 66 65 65 65 64 64 64 64 64 64 63 63 63 62 62 62 62 62 62 61 61 61 60 61 60 59 58 58 58 58 57 56 55 55 56 55 55 54 53 53 52 51 50 50 49 49 48 48 46 46 46 45 42 39 37 38 39 38 36 35 35 36 35 37 42
62 63 64 64 64 64 64 65 65 66 65 64 62 62 64 64 64 64 65 65 66 65 66 67 66 66 66 66 66 66 66 66 65 66 66 65 66 66 66 66 65 65 65 65 65 65 65 64 64 64 63 62 61 61 61 61 61 60 60 60 60 60 59 58 57 57 57 56 56 54 53 54 54 54 53 52 51 51 50 50 50 50 49 48 47 45 43 41 42 43 42 41 41 41 41 39 36 35 34 34 34 36 41
61 62 63 64 64 64 64 64 64 65 66 65 64 64 65 66 67 65 64 64 65 65 65 67 67 66 66 65 65 65 65 65 65 65 65 65 65 66 66 66 65 65 66 66 66 66 65 64 64 64 63 62 61 61 60 60 60 60 60 59 59 59 58 57 56 56 56 55 55 54 52 52 52 52 51 50 49 48 48 48 49 50 49 48 46 43 41 38 39 42 43 44 44 42 42 40 37 37 35 33 33 34 41
59 60 61 62 63 64 64 64 64 64 65 66 66 67 68 68 68 66 65 64 64 64 64 65 67 67 66 66 65 65 65 64 65 64 64 64 65 65 65 65 65 65 65 66 66 66 65 64 64 64 63 63 62 61 60 60 60 60 59 59 58 58 58 57 55 55 54 54 55 53 51 51 51 51 50 48 47 46 46 46 48 49 49 48 46 42 39 37 38 41 43 45 45 42 42 42 41 40 37 34 34 35 41
57 58 60 61 62 63 64 64 64 64 64 66 68 68 68 68 68 69 68 66 64 64 65 66 66 66 66 66 66 66 66 65 64 64 64 65 67 66 66 65 65 65 66 66 66 67 65 64 64 64 63 63 62 61 60 60 60 59 59 58 58 58 57 57 55 54 53 52 53 52 51 50 50 50 48 47 46 45 44 45 46 48 49 48 46 43 40 38 39 41 43 44 43 42 43 45 45 42 40 37 36 37 42
57 57 58 60 61 62 63 64 64 64 64 65 66 67 68 69 68 69 68 67 64 65 66 67 65 66 66 66 66 66 66 66 66 67 66 65 66 67 67 66 66 66 66 66 66 66 65 64 64 64 63 63 61 60 60 60 59 59 58 58 57 57 57 57 55 53 51 51 52 52 51 50 49 49 47 46 45 44 43 43 44 47 48 48 47 44 41 39 40 41 42 43 42 43 44 45 45 43 41 38 37 38 42
64 60 59 59 60 60 61 63 64 64 64 64 65 67 68 69 69 69 68 67 67 67 67 67 66 66 66 66 66 65 65 65 65 67 67 67 66 66 65 65 66 67 67 66 66 66 65 64 64 64 64 63 61 60 60 59 59 58 58 57 57 57 57 56 55 53 51 50 51 51 50 49 49 48 46 45 44 44 43 43 43 46 47 47 46 44 42 41 41 41 42 42 42 43 44 44 43 42 41 40 39 40 41
64 64 64 63 59 59 60 62 63 64 64 64 64 65 66 66 67 68 68 68 67 67 67 68 67 67 66 65 66 66 66 65 65 65 66 66 65 65 65 66 65 66 66 66 66 66 65 64 64 64 63 62 61 60 60 59 59 58 57 57 56 56 56 55 55 52 50 49 50 51 50 49 48 47 45 44 44 46 46 44 44 46 46 46 44 44 43 42 41 41 41 42 42 43 44 44 43 42 42 41 40 40 40
59 62 64 64 63 60 60 61 61 61 61 62 65 65 64 63 64 65 66 66 66 67 66 67 68 67 67 67 66 65 65 65 66 65 65 66 66 65 66 66 66 64 64 65 66 65 65 64 64 63 62 61 60 60 60 60 59 58 57 56 56 56 56 55 54 52 50 49 49 50 50 49 48 46 44 42 42 45 46 46 46 46 46 44 43 42 42 42 42 41 41 41 42 43 43 43 42 42 41 40 40 40 39
55 57 62 65 62 61 61 63 65 61 62 65 66 65 64 63 64 63 63 63 64 64 64 65 67 66 66 66 66 67 66 66 66 67 67 67 66 66 66 66 65 64 63 63 65 65 64 64 63 63 62 61 60 60 60 59 58 58 57 56 56 56 55 55 54 51 50 49 49 50 49 48 47 46 44 42 42 44 46 47 47 46 45 44 42 42 42 42 42 42 41 41 42 42 43 43 42 41 40 39 40 39 39
55 57 59 60 60 61 62 62 61 63 67 69 66 64 64 65 65 64 63 63 64 63 63 63 65 64 64 65 67 67 67 67 67 67 67 67 66 65 65 65 64 64 64 64 64 64 64 64 63 63 63 63 61 60 59 59 59 58 57 56 56 56 55 55 53 51 50 49 49 49 49 48 47 46 45 43 42 45 46 47 47 46 45 44 42 42 42 42 43 42 42 42 42 42 42 42 42 40 39 38 38 38 39
52 55 59 61 62 61 60 60 59 61 62 63 63 64 64 62 61 61 63 65 66 65 64 64 64 63 62 62 64 64 65 67 69 66 65 66 66 65 65 65 65 65 65 66 66 64 64 64 63 63 64 64 63 60 59 59 59 58 57 56 56 56 55 54 53 51 49 48 49 49 48 48 47 47 45 44 43 45 46 46 46 45 44 44 43 42 42 42 43 42 42 42 42 42 42 42 42 42 39 37 37 37 38
49 52 55 59 61 61 61 61 60 60 60 60 60 60 60 59 58 60 62 64 63 63 63 64 64 61 59 58 59 61 64 66 67 66 65 65 65 65 65 66 65 65 65 66 66 64 64 63 63 64 64 64 64 61 60 59 59 58 57 57 57 56 55 54 52 50 48 48 48 48 48 47 47 46 46 45 44 45 46 46 45 45 44 43 42 42 42 42 42 43 42 42 41 41 42 42 42 41 40 38 37 37 38
47 49 51 54 57 59 60 61 60 59 59 60 59 58 58 58 59 64 64 62 61 61 62 63 62 62 60 58 58 59 62 64 66 65 65 64 64 64 65 65 65 65 65 66 66 65 64 63 63 63 63 62 61 60 60 59 58 57 57 57 57 56 55 54 52 49 48 47 47 47 47 46 46 46 45 45 45 45 45 44 44 44 43 42 42 42 42 42 42 42 42 42 41 40 41 41 41 41 40 39 38 38 38
45 46 48 51 54 55 57 59 59 59 61 63 60 60 60 60 62 64 62 60 61 61 61 63 63 64 64 62 61 60 61 63 64 65 65 64 64 64 64 65 66 66 66 66 65 64 63 62 62 61 61 60 60 60 60 59 58 58 58 57 56 56 55 54 51 49 48 47 47 47 46 46 46 45 45 45 45 45 44 43 43 42 42 42 41 41 41 41 41 42 42 42 41 40 40 41 41 41 41 40 38 38 38
42 43 46 49 51 52 54 55 57 58 60 61 61 61 61 61 62 62 62 62 62 60 60 61 64 65 65 65 65 64 64 63 61 63 64 64 64 64 64 64 65 66 66 66 64 63 62 62 61 60 60 60 60 60 59 59 58 58 58 57 56 55 55 54 52 50 48 47 47 46 46 45 45 45 45 45 45 44 43 42 42 42 42 42 41 41 41 41 41 41 41 42 42 41 41 41 41 41 41 40 39 38 37
38 41 43 46 48 49 51 52 54 55 56 57 59 60 61 62 61 62 62 63 63 62 60 60 62 62 64 66 66 66 65 63 60 60 63 65 66 64 64 64 65 65 65 65 63 62 62 62 61 60 60 60 60 60 59 59 58 58 58 57 56 56 55 54 52 50 48 47 46 46 45 45 45 44 45 45 45 44 43 42 42 42 41 41 41 41 41 41 41 41 41 41 41 42 42 42 41 41 40 40 38 37 37
35 38 40 41 43 44 46 48 50 51 53 54 55 58 60 62 63 63 62 61 61 62 62 61 61 60 62 65 67 65 64 63 60 60 63 67 68 66 65 64 64 65 64 64 63 63 63 63 61 60 59 59 60 60 59 59 59 58 58 57 57 56 55 54 52 50 48 47 46 46 45 45 45 44 44 44 44 43 43 42 43 42 41 41 41 41 41 41 41 41 41 40 41 41 42 41 41 40 40 39 37 36 35
33 36 36 36 38 40 41 42 45 47 49 51 53 55 57 60 64 64 62 61 60 60 60 61 62 61 61 62 63 62 63 64 64 63 65 67 68 67 65 65 65 65 64 64 64 65 65 64 62 60 59 59 60 59 59 59 59 58 58 57 57 56 55 54 52 50 48 47 46 46 45 45 45 44 43 43 43 43 43 42 42 41 41 41 42 41 41 41 41 41 41 40 41 41 41 41 40 40 39 37 36 35 34
32 34 33 33 33 36 37 37 39 42 45 47 48 51 54 57 61 61 61 60 60 59 59 60 60 60 60 60 60 60 61 63 66 66 66 67 66 64 64 65 65 65 64 63 63 64 65 65 64 60 59 59 60 60 59 59 58 58 58 58 58 57 55 54 51 50 48 47 46 46 46 45 45 44 43 43 43 43 42 42 41 41 41 41 42 41 41 40 40 41 40 40 40 41 41 40 39 39 38 37 35 34 34
31 33 32 31 31 33 34 35 36 37 39 42 44 48 52 55 57 59 60 60 59 59 59 60 59 59 59 59 60 60 60 60 64 66 67 66 63 62 63 65 66 65 64 63 62 62 63 65 67 61 59 59 60 60 60 60 58 58 58 59 59 58 57 55 51 49 48 47 46 46 46 45 45 44 43 43 42 42 42 42 41 41 41 41 41 40 40 40 40 40 40 40 39 40 40 39 39 38 37 36 34 33 33
30 31 31 30 31 33 33 34 35 35 36 37 39 43 46 50 53 55 59 61 61 60 60 60 60 60 59 60 60 60 60 60 62 64 65 65 63 61 63 64 65 64 64 63 62 62 63 64 65 63 61 60 58 59 60 60 59 58 58 59 59 59 58 56 51 50 48 47 46 46 46 46 45 44 43 43 42 42 42 41 40 40 41 41 41 40 39 39 40 40 39 39 39 39 39 39 38 38 38 38 37 34 33
29 29 31 33 33 33 33 33 34 35 35 36 37 39 42 45 47 51 55 60 63 62 63 63 63 62 62 63 63 61 60 60 60 63 64 64 64 62 62 63 64 64 63 62 63 62 63 64 64 64 63 63 62 60 60 60 60 59 59 59 59 58 58 56 51 50 49 47 46 46 46 46 45 45 44 43 42 42 42 41 41 40 40 41 41 39 39 38 39 39 39 39 39 38 38 38 38 38 39 39 38 36 34
29 29 31 33 34 32 31 31 32 33 34 35 36 38 40 43 46 49 52 55 59 61 62 62 62 62 62 63 65 64 63 61 61 61 62 62 62 61 61 62 64 64 63 63 63 63 63 64 64 64 64 64 64 64 62 60 60 60 60 60 60 59 58 56 52 50 49 48 47 47 47 46 45 45 44 43 42 42 42 42 41 41 41 40 40 39 38 37 38 38 39 38 38 38 38 38 37 38 38 38 37 36 34
29 29 29 30 32 30 29 30 30 32 33 34 34 37 38 40 43 44 46 47 50 54 56 59 64 64 62 61 62 62 61 60 60 60 60 60 60 60 62 63 64 64 63 63 63 63 64 64 64 64 64 64 64 64 64 63 61 62 62 62 61 60 59 56 52 50 49 49 48 48 47 46 45 44 44 44 43 43 42 42 41 41 41 41 40 39 38 37 37 38 38 38 38 38 38 37 37 38 37 36 36 36 35
28 28 28 28 29 29 29 29 29 31 32 33 33 34 35 37 37 38 39 41 44 46 48 53 60 62 61 60 59 60 60 60 60 60 59 59 59 60 61 63 65 64 63 62 62 62 63 64 64 64 63 63 63 63 63 63 63 63 63 64 63 61 59 56 53 51 49 49 48 47 47 47 46 44 43 43 44 44 43 42 41 41 40 40 40 39 38 38 39 38 38 38 38 37 37 37 37 37 36 35 34 36 35
26 27 27 27 27 28 28 29 29 30 31 31 31 31 32 33 33 35 36 37 40 41 42 43 46 56 59 59 57 58 59 60 60 61 60 59 58 59 60 61 64 63 62 61 61 61 62 62 63 63 63 62 62 63 63 63 63 63 64 64 63 61 59 57 54 51 49 48 48 48 47 47 47 46 44 43 43 44 43 42 41 40 40 39 38 38 38 38 38 37 37 37 37 37 37 37 38 35 34 34 34 34 35
26 27 26 26 26 27 28 28 29 29 29 30 30 29 29 29 29 31 33 34 36 38 39 40 41 46 51 55 55 55 56 59 61 62 62 60 60 59 60 60 61 62 62 61 61 61 61 62 62 62 62 62 62 62 62 63 63 63 63 63 63 61 60 57 54 51 49 48 48 48 48 47 47 47 46 44 42 43 42 42 42 40 39 39 39 38 37 37 37 37 37 36 36 36 36 37 38 34 33 33 33 33 34
25 26 26 25 26 26 26 27 28 29 29 29 31 29 28 28 28 28 30 32 35 37 38 38 38 40 42 44 46 51 55 57 59 60 60 60 59 59 59 59 59 59 60 61 62 62 62 62 62 62 63 63 62 62 62 62 62 62 62 62 62 61 60 59 58 53 50 48 47 48 48 47 47 47 46 44 42 42 42 42 42 40 39 39 39 37 36 36 36 36 36 36 35 35 35 35 35 33 32 32 33 33 33
25 26 26 26 25 25 25 26 27 28 28 28 30 29 28 28 28 29 30 31 33 34 35 36 37 39 40 42 45 49 51 54 55 57 58 59 59 58 58 58 58 58 58 60 61 63 63 63 63 63 63 63 63 62 62 62 61 62 62 62 62 62 61 60 59 57 54 50 46 47 47 47 47 46 46 45 43 42 42 42 41 40 39 37 37 37 37 36 35 35 35 35 33 33 34 35 34 32 31 31 32 33 33
24 26 26 26 26 26 25 26 26 28 29 29 28 27 27 28 29 29 30 31 32 33 33 34 36 37 39 41 44 46 48 50 53 56 58 59 59 59 58 57 57 58 59 60 63 64 64 63 63 64 64 64 64 63 62 62 62 62 62 62 62 62 61 60 60 59 57 54 50 48 47 47 47 46 45 44 44 44 43 42 41 41 39 37 36 36 37 37 37 36 34 33 32 32 33 34 34 33 32 31 31 31 31
25 26 26 26 26 26 26 26 26 28 30 30 26 26 26 27 27 28 29 30 30 31 31 32 32 34 37 39 41 43 44 46 47 52 55 57 57 58 58 58 58 59 61 62 63 63 62 62 62 63 63 63 64 63 62 62 62 61 62 62 62 62 61 60 59 59 59 57 53 50 48 47 48 46 45 44 44 44 43 42 42 41 39 38 37 36 36 37 37 35 33 32 31 30 30 31 32 31 31 31 31 31 30
26 26 27 27 27 27 27 27 27 28 30 32 29 27 27 28 29 28 29 30 29 29 29 30 30 32 34 36 38 39 41 44 46 48 51 53 55 60 60 59 58 58 59 60 60 61 61 61 63 63 63 62 62 62 62 61 61 61 61 62 62 62 61 60 60 59 59 58 55 52 50 49 48 47 45 44 43 43 43 42 42 42 41 39 38 37 36 34 34 34 34 34 33 31 29 28 29 29 29 29 31 32 31
25 26 27 27 27 27 27 27 27 28 30 30 28 27 28 29 29 28 28 28 28 28 28 29 31 33 35 36 38 38 39 41 43 47 52 55 56 58 57 57 58 58 59 60 61 61 61 61 63 64 63 61 61 61 61 61 61 61 61 61 62 62 61 61 60 60 59 59 58 54 51 50 48 47 46 45 43 43 42 42 42 42 41 40 38 38 37 35 34 34 34 34 33 31 28 28 28 29 28 29 31 31 30
25 25 26 27 27 26 27 27 27 27 28 28 27 27 28 28 27 27 27 27 27 28 28 28 30 31 33 34 36 36 37 39 40 45 48 51 52 54 55 55 57 59 60 60 61 60 60 60 61 62 62 61 60 60 60 60 60 60 60 61 61 61 61 61 60 60 59 59 58 57 55 52 49 48 47 46 44 43 42 42 42 42 42 41 39 38 38 37 36 34 32 31 29 28 28 28 28 29 28 28 29 30 29
24 25 26 26 26 26 26 26 26 26 26 27 27 27 28 28 26 26 27 27 26 27 27 27 27 28 30 32 33 34 33 34 35 36 38 41 42 44 48 51 55 57 58 58 59 59 59 59 59 60 60 60 60 60 60 60 60 60 60 60 60 61 61 61 61 60 60 59 58 58 57 55 51 49 47 46 45 44 43 42 42 42 42 42 42 39 38 38 37 35 33 31 29 28 28 28 28 29 28 27 28 29 30
24 25 26 26 26 25 25 25 25 25 25 26 27 28 28 27 27 27 27 27 27 26 26 26 27 27 28 29 30 31 30 30 29 31 33 36 37 37 40 43 46 52 55 57 57 58 59 59 59 59 59 59 60 60 60 60 60 60 60 60 60 61 61 61 61 61 60 59 58 57 56 55 55 52 50 47 46 45 43 42 42 41 41 41 42 41 39 38 36 36 35 34 32 31 30 29 28 28 27 26 25 27 29
24 25 26 26 26 26 26 25 24 24 25 26 28 28 28 27 27 28 28 28 28 27 27 26 26 27 28 28 29 29 29 29 28 30 32 34 36 37 39 42 44 47 51 55 56 57 58 58 58 58 57 58 59 59 60 60 61 61 61 61 61 61 61 62 61 61 60 60 59 58 56 55 56 58 56 53 48 46 44 43 42 41 40 40 40 41 40 39 37 37 36 35 34 33 33 31 28 27 26 26 24 24 26
24 24 25 26 26 28 28 26 23 24 25 26 27 28 28 27 27 28 28 28 28 28 27 27 26 26 27 27 28 28 28 30 29 29 30 30 30 32 35 39 43 45 47 51 53 56 57 57 57 57 57 57 57 59 60 60 60 61 61 61 62 62 62 62 62 61 61 60 60 59 58 57 56 57 58 58 55 50 46 44 42 41 41 40 39 40 40 40 40 38 37 36 34 33 33 32 30 28 27 26 24 24 25
23 24 25 25 26 27 28 27 24 26 27 27 27 29 29 29 29 29 28 28 27 28 28 27 27 27 27 27 27 28 30 30 29 30 29 28 28 30 32 34 38 41 44 47 51 55 57 58 57 57 57 57 58 60 60 59 60 60 60 60 61 60 61 62 62 61 61 61 60 60 59 58 57 56 56 56 57 55 51 47 44 42 41 40 39 39 39 40 41 39 37 37 36 34 33 32 32 30 29 27 26 27 26
20 24 25 25 24 24 24 25 24 26 28 29 28 29 31 32 31 31 29 28 28 28 28 28 28 29 29 28 29 31 32 32 28 29 28 28 28 28 29 30 32 36 40 44 49 54 56 57 57 57 56 56 57 58 59 59 60 60 60 60 60 59 60 60 61 61 61 61 60 60 60 59 58 56 55 55 55 55 54 51 47 45 42 41 40 39 40 40 40 39 38 37 36 34 33 33 33 32 31 29 28 27 26
19 24 25 24 22 22 21 22 22 24 27 29 28 29 31 33 33 32 31 30 29 28 28 29 31 32 31 30 29 30 31 30 28 28 28 28 28 28 28 28 28 30 35 41 49 51 53 55 56 55 55 55 56 57 57 58 58 59 60 60 60 59 59 59 60 60 60 60 60 60 59 59 59 57 56 55 54 54 54 53 51 48 45 42 41 40 40 41 40 39 38 37 36 35 35 34 34 33 33 31 28 28 27
19 22 24 24 21 20 21 21 22 23 25 26 27 28 29 30 32 32 31 30 30 30 30 30 31 32 31 30 29 29 28 28 28 28 29 29 29 29 29 28 28 29 32 36 43 48 50 51 53 54 54 55 55 55 55 56 56 58 58 59 59 60 60 59 59 59 60 60 60 60 60 59 59 58 57 56 54 53 53 52 51 49 47 45 43 42 41 41 41 40 39 38 37 36 35 35 34 35 35 34 31 29 28
19 21 23 22 21 20 20 21 21 22 24 25 26 27 27 28 30 30 29 28 29 31 31 31 31 31 31 31 30 29 28 28 29 29 29 29 29 30 30 29 29 31 32 34 37 43 47 49 51 51 52 54 54 54 54 55 55 56 57 58 59 59 60 60 60 60 60 59 60 60 60 59 59 59 58 57 56 54 53 51 50 48 47 46 46 43 42 42 42 42 41 40 38 37 36 34 33 33 35 35 34 30 28
19 21 22 21 21 20 20 20 20 22 23 24 26 27 27 28 28 28 28 28 30 31 32 32 32 31 31 31 31 31 30 30 30 30 30 29 30 30 31 32 32 33 33 34 35 38 41 44 47 48 51 52 52 52 53 55 55 55 56 57 58 58 59 60 60 60 60 60 59 60 60 60 59 59 58 58 57 56 54 52 51 49 48 47 47 46 43 42 42 42 42 41 39 37 36 34 33 33 33 34 33 31 29
18 20 22 21 20 19 19 19 20 21 23 24 24 26 27 27 28 28 29 29 30 31 32 33 33 32 32 32 33 33 33 33 32 32 31 31 31 32 33 34 34 35 35 36 37 37 38 39 42 46 49 50 50 52 53 54 55 55 56 56 57 57 58 59 60 60 60 60 60 60 60 60 59 59 58 58 58 57 55 54 51 50 49 47 47 46 45 44 43 42 42 41 40 38 36 34 33 32 32 32 31 31 31
19 20 21 21 20 19 19 19 19 20 21 22 22 24 25 26 26 27 28 30 31 32 33 33 33 33 33 33 34 34 34 34 34 33 33 33 33 33 34 35 35 36 37 38 39 39 39 40 41 43 45 47 48 51 53 53 54 55 55 55 56 57 57 58 59 59 60 60 60 60 60 59 59 59 58 58 58 57 57 55 54 51 49 46 46 46 46 46 45 43 42 41 40 37 34 32 30 30 30 30 29 29 30
20 20 20 19 19 19 19 19 18 19 20 20 21 22 23 24 24 25 27 29 31 31 32 33 33 34 34 35 35 35 35 35 35 35 36 36 36 36 35 35 35 37 38 39 39 40 40 41 41 42 43 45 47 50 52 53 54 54 55 55 55 56 57 57 58 58 59 59 60 60 59 59 59 59 59 59 58 58 57 56 55 53 51 48 45 45 46 46 46 45 43 42 41 38 35 32 29 31 31 30 29 28 31
19 20 19 19 19 19 19 19 19 19 19 19 20 20 21 21 23 24 27 29 31 32 32 33 35 36 36 36 35 35 35 35 35 36 36 37 37 37 37 37 37 37 38 38 39 41 41 42 42 43 44 45 47 49 51 51 52 53 53 53 53 54 55 56 57 57 58 58 58 59 59 59 59 59 59 59 58 58 57 57 56 55 53 51 48 47 47 48 49 48 46 43 43 41 38 36 33 34 34 33 30 28 31
19 19 19 19 19 19 19 19 19 18 18 19 19 19 19 20 23 24 28 30 32 33 34 35 36 36 37 37 36 36 36 36 35 35 36 37 37 37 37 37 37 38 38 38 40 40 41 42 44 45 45 46 47 48 50 51 52 51 51 51 51 51 52 53 55 56 57 57 58 58 58 58 58 58 59 59 58 58 57 57 56 56 55 54 51 50 50 50 52 52 50 46 44 43 41 39 37 37 36 34 32 31 31